Regional Weather Roundup
Issued by NWS

Home | Current Version | Previous Version | Text Only | Print | Product List | Glossary Off
Versions: 1 2 3 4 5 6 7 8 9 10 11 12 13 14 15 16 17 18 19 20 21 22 23 24 25 26 27 28 29 30 31 32 33 34 35 36 37 38 39 40 41 42 43 44 45 46 47 48 49 50

000
ASUS45 KPSR 080010
RWRAZ

ARIZONA HOURLY REGIONAL WEATHER ROUNDUP
NATIONAL WEATHER SERVICE PHOENIX AZ
500 PM MST SUN FEB 07 2016

NOTE: FAIR INDICATES FEW OR NO CLOUDS BELOW 12,000 FEET WITH NO
SIGNIFICANT WEATHER AND/OR OBSTRUCTIONS TO VISIBILITY.

AZZ001>003-036-080100-
NORTHWEST ARIZONA

CITY           SKY/WX    TMP DP  RH WIND       PRES   REMARKS
BULLHEAD CITY  SUNNY     72  23  16 N24G32    30.20F
KINGMAN        SUNNY     64  20  18 N21       30.28S
6HR MIN TEMP:  54; 6HR MAX TEMP:  66;

$$

AZZ004>008-015-016-018-080100-
NORTH CENTRAL ARIZONA

CITY           SKY/WX    TMP DP  RH WIND       PRES   REMARKS
GRAND CANYON   SUNNY     47  15  27 NE15G22   30.44R
6HR MIN TEMP:  47; 6HR MAX TEMP:  49;

WILLIAMS       SUNNY     48  18  29 NE16      30.44R
PRESCOTT       SUNNY     61  15  16 NE13G21   30.30R
6HR MIN TEMP:  48; 6HR MAX TEMP:  65;

FLAGSTAFF      SUNNY     44  14  29 NE15      30.40S
6HR MIN TEMP:  41; 6HR MAX TEMP:  46;

PAYSON         SUNNY     59  16  18 NE15G21   30.30S
PAGE           CLEAR     45  23  42 CALM      30.45S
6HR MIN TEMP:  36; 6HR MAX TEMP:  45;

$$

AZZ009>014-017-080100-
NORTHEAST ARIZONA

CITY           SKY/WX    TMP DP  RH WIND       PRES   REMARKS
WINSLOW        SUNNY     55  18  23 NW8       30.39S
6HR MIN TEMP:  40; 6HR MAX TEMP:  56;

SAINT JOHNS    CLEAR     52  18  26 NW6       30.36R
6HR MIN TEMP:  41; 6HR MAX TEMP:  54;

WINDOW ROCK    CLEAR     49   0  13 N9        30.38R
6HR MIN TEMP:  39; 6HR MAX TEMP:  54;

SHOW LOW       CLEAR     46  18  31 NE15      30.39R
$$

AZZ023-080100-
GREATER PHOENIX AREA

CITY           SKY/WX    TMP DP  RH WIND       PRES   REMARKS
PHOENIX        MOSUNNY   78  20  11 W6        30.09F
6HR MIN TEMP:  65; 6HR MAX TEMP:  79;

BUCKEYE        SUNNY     75  23  14 W6        30.13S
LUKE AFB       SUNNY     76  20  12 SW5       30.09F
6HR MIN TEMP:  65; 6HR MAX TEMP:  76;

DEER VALLEY    SUNNY     77  20  12 W8        30.10S
6HR MIN TEMP:  64; 6HR MAX TEMP:  78;

SCOTTSDALE     SUNNY     78  19  11 S3        30.12S
6HR MIN TEMP:  63; 6HR MAX TEMP:  78;

MESA-GATEWAY   MOSUNNY   79  25  13 N7        30.11S
CHANDLER       MOSUNNY   82  18   9 NW9       30.10S
$$

AZZ027-028-080100-
SOUTHWEST MARICOPA COUNTY AND PINAL COUNTY

CITY           SKY/WX    TMP DP  RH WIND       PRES   REMARKS
CASA GRANDE    SUNNY     75  25  15 NW5       30.12F
6HR MIN TEMP:  61; 6HR MAX TEMP:  75;

GILA BEND      FAIR      75  19  12 N9        30.10F
6HR MIN TEMP:  62; 6HR MAX TEMP:  76;

$$

AZZ503-504-507>509-080100-
SOUTHEAST ARIZONA

CITY           SKY/WX    TMP DP  RH WIND       PRES   REMARKS
TUCSON         CLOUDY    69  17  13 N6        30.16R
6HR MIN TEMP:  61; 6HR MAX TEMP:  72;

DAVIS-MONTHAN  PTSUNNY   67  19  16 NW8       30.14R
6HR MIN TEMP:  66; 6HR MAX TEMP:  70;

RYAN FIELD     SUNNY     70  19  14 NW9       30.15R
NOGALES        PTSUNNY   71   2   6 NE10      30.15S
6HR MIN TEMP:  61; 6HR MAX TEMP:  77;

SIERRA VISTA   CLOUDY    62   8  11 E5        30.23S
6HR MIN TEMP:  58; 6HR MAX TEMP:  66;

DOUGLAS        PTSUNNY   65  10  11 NW5       30.21R
6HR MIN TEMP:  56; 6HR MAX TEMP:  68;

SAFFORD        PTSUNNY   64  13  13 NW3       30.19S
6HR MIN TEMP:  56; 6HR MAX TEMP:  66;

$$

AZZ020-021-025-026-031-080100-
SOUTHWEST ARIZONA

CITY           SKY/WX    TMP DP  RH WIND       PRES   REMARKS
YUMA           SUNNY     75  54  47 N12       30.11
6HR MIN TEMP:  69; 6HR MAX TEMP:  76;

$$

CAZ031-033-041-043-047-048-061-080100-
SOUTHERN CALIFORNIA

CITY           SKY/WX    TMP DP  RH WIND       PRES   REMARKS
DOWNTOWN L.A.  SUNNY     81  21  11 W6        30.07R
6HR MIN TEMP:  72; 6HR MAX TEMP:  84;

L.A. AIRPORT   SUNNY     72  39  30 W10       30.08S
6HR MIN TEMP:  72; 6HR MAX TEMP:  82;

SAN DIEGO      MOSUNNY   77  33  20 NW7       30.06S
6HR MIN TEMP:  67; 6HR MAX TEMP:  80;

BURBANK        SUNNY     83  12   7 E10G16    30.08S
6HR MIN TEMP:  68; 6HR MAX TEMP:  86;

ONTARIO        SUNNY     81  10   7 NE17G25   30.09S
6HR MIN TEMP:  71; 6HR MAX TEMP:  84;

RIVERSIDE      SUNNY     80  15   8 N17G32    30.12S
6HR MIN TEMP:  75; 6HR MAX TEMP:  81;

PALM SPRINGS   SUNNY     82  18   9 N13       30.17S
6HR MIN TEMP:  76; 6HR MAX TEMP:  84;

EL CENTRO NAS  SUNNY     81  16   9 N7        30.14
IMPERIAL       SUNNY     81  23  11 N5        30.12S
6HR MIN TEMP:  70; 6HR MAX TEMP:  81;

BLYTHE         SUNNY     80  20  10 N14       30.13F
6HR MIN TEMP:  60; 6HR MAX TEMP:  80;

NEEDLES        SUNNY     75  20  12 N23G31    30.19S
6HR MIN TEMP:  65; 6HR MAX TEMP:  75;

$$

NVZ020-UTZ003-080100-
SOUTHERN NEVADA-UTAH

CITY           SKY/WX    TMP DP  RH WIND       PRES   REMARKS
LAS VEGAS      SUNNY     71  19  14 NE9       30.28S
6HR MIN TEMP:  56; 6HR MAX TEMP:  71;

SALT LAKE CITY MOCLDY    36  28  73 N6        30.60R HAZE    WCI  31
6HR MIN TEMP:  34; 6HR MAX TEMP:  41;

$$

NMZ009-TXZ055-080100-
NEW MEXICO-WEST TEXAS

CITY           SKY/WX    TMP DP  RH WIND       PRES   REMARKS
ALBUQUERQUE    CLEAR     55  17  22 N12       30.30R
6HR MIN TEMP:  45; 6HR MAX TEMP:  57;

EL PASO        CLOUDY    62  11  13 CALM      30.21R
6HR MIN TEMP:  53; 6HR MAX TEMP:  63;

$$


........................KEY........................
SKY/WX - SKY CONDITION/WEATHER
TMP    - TEMPERATURE IN FAHRENHEIT
DP     - DEW POINT IN FAHRENHEIT
RH     - RELATIVE HUMIDITY IN PERCENT
WIND   - DIRECTION AND SPEED IN MILES PER HOUR (MPH)
VRB    - VARIABLE WIND DIRECTION
PRES   - MEAN SEA LEVEL PRESSURE IN INCHES OF MERCURY
         F - FALLING PRESSURE   R - RISING PRESSURE
         S - STEADY PRESSURE
VSB    - VISIBILITY IN MILES
HX     - HEAT INDEX IN FAHRENHEIT
WCI    - WIND CHILL INDEX IN FAHRENHEIT
TC     - TEMPERATURE IN CELSIUS WHICH IS ALSO KNOWN AS
         TEMPERATURE IN CENTIGRADE
AFB    - AIR FORCE BASE
         LUKE AFB IS LUKE AIR FORCE BASE
         DAVIS-MONTHAN IS DAVIS-MONTHAN AIR FORCE BASE
NAS    - NAVAL AIR STATION
         EL CENTRO NAS IS EL CENTRO NAVAL AIR STATION
N/A    - NOT AVAILABLE





USA.gov is the U.S. government's official web portal to all federal, state and local government web resources and services.